Location: Cabeza de los Veneras
(40.2000°N, 5.2000°W)
Time: 15:27:27
(UTC+00:00)

Hubble Space Telescope - Pass Details

Date: 29 June 2024
Orbit: 509 x 513 km, 28.5° (Epoch: 23 July)

Event Time Altitude Azimuth Distance (km) Brightness Sun altitude
Exits shadow 03:56:02 - 195° (SSW) 1,781 2.9 -9.7°
Reaches altitude 10° 03:56:25 10° 190° (S) 1,718 2.9 -9.7°
Maximum altitude 03:57:52 12° 168° (SSE) 1,611 2.9 -9.5°
Drops below altitude 10° 03:59:20 10° 147° (SSE) 1,718 3.3 -9.3°
Sets 04:02:51 0° 114° (ESE) 2,602 4.6 -8.8°
